Regional Weather Roundup
Issued by NWS

Home | Current Version | Previous Version | Text Only | Print | Product List | Glossary On
Versions: 1 2 3 4 5 6 7 8 9 10 11 12 13 14 15 16 17 18 19 20 21 22 23 24 25 26 27 28 29 30 31 32 33 34 35 36 37 38 39 40 41 42 43 44 45 46 47 48 49 50
000
ASUS45 KPSR 311700
RWRAZ

PRELIMINARY ARIZONA REGIONAL HOURLY WEATHER ROUNDUP
NATIONAL WEATHER SERVICE PHOENIX AZ
1000 AM MST SAT JAN 31 2015

NOTE: FAIR INDICATES FEW OR NO CLOUDS BELOW 12,000 FEET WITH NO
SIGNIFICANT WEATHER AND/OR OBSTRUCTIONS TO VISIBILITY.

AZZ001>003-036-311800-
NORTHWEST ARIZONA

CITY           SKY/WX    TMP DP  RH WIND       PRES   REMARKS
KINGMAN        CLOUDY    47  44  90 NE6       29.91R
$$

AZZ004>008-015-016-018-311800-
NORTH CENTRAL ARIZONA

CITY           SKY/WX    TMP DP  RH WIND       PRES   REMARKS
GRAND CANYON   PTSUNNY   41  36  82 NE5       29.93R
PRESCOTT       CLOUDY    46  39  76 CALM      29.90R
FLAGSTAFF      NOT AVBL
PAYSON         CLOUDY    46  43  87 E6        29.92R
$$

AZZ009>014-017-311800-
NORTHEAST ARIZONA

CITY           SKY/WX    TMP DP  RH WIND       PRES   REMARKS
WINSLOW        CLOUDY    42  40  92 NW8       29.93R
SAINT JOHNS    CLOUDY    42  39  89 NW3       29.90R
WINDOW ROCK    CLOUDY    35  32  88 CALM      29.92R FOG
SHOW LOW       CLOUDY    39  36  87 SE3       29.94R
$$

AZZ023-311800-
GREATER PHOENIX AREA

CITY           SKY/WX    TMP DP  RH WIND       PRES   REMARKS
PHOENIX        CLOUDY    57  54  89 CALM      29.84R
GLENDALE       PTSUNNY   57  57 100 NW5       29.86R
LUKE AFB       PTSUNNY   59  54  84 N5        29.84R
DEER VALLEY    CLOUDY    57  52  83 CALM      29.84R
SCOTTSDALE     CLOUDY    56  53  90 CALM      29.85R
MESA-GATEWAY   CLOUDY    55  52  88 CALM      29.87R
CHANDLER       CLOUDY    55  55 100 CALM      29.85R
$$

AZZ027-028-311800-
SOUTHWEST MARICOPA COUNTY AND PINAL COUNTY

CITY           SKY/WX    TMP DP  RH WIND       PRES   REMARKS
CASA GRANDE    CLOUDY    55  54  94 CALM      29.86R
$$

AZZ503-504-507>509-311800-
SOUTHEAST ARIZONA

CITY           SKY/WX    TMP DP  RH WIND       PRES   REMARKS
TUCSON         LGT RAIN  53  49  86 SE6       29.89R
DAVIS-MONTHAN  LGT RAIN  51  51  99 E3        29.87R
NOGALES        CLOUDY    50  45  83 S7        29.88R
SIERRA VISTA   CLOUDY    46  44  93 CALM      29.90R
SAFFORD        CLOUDY    49  47  93 SE7       29.89R
$$

AZZ020-021-025-026-031-311800-
SOUTHWEST ARIZONA

CITY           SKY/WX    TMP DP  RH WIND       PRES   REMARKS
YUMA           PTSUNNY   61  50  67 N9        29.87R
$$

CAZ031-033-041-043-047-048-061-311800-
SOUTHERN CALIFORNIA

CITY           SKY/WX    TMP DP  RH WIND       PRES   REMARKS
DOWNTOWN L.A.  MOSUNNY   61  54  77 CALM      29.90R
L.A. AIRPORT   PTSUNNY   60  55  83 E5        29.91R
SAN DIEGO      PTSUNNY   60  53  77 S3        29.93R
BURBANK        MOSUNNY   57  52  83 CALM      29.91R
ONTARIO        PTSUNNY   56  51  84 VRB5      29.92R
RIVERSIDE      PTSUNNY   54  51  90 CALM      29.92R
PALM SPRINGS   PTSUNNY   62  50  64 N5        29.91R
EL CENTRO NAS  PTSUNNY   62  51  67 NW5       29.88R
IMPERIAL       PTSUNNY   60  52  74 NW3       29.87R
BLYTHE         PTSUNNY   56  51  84 CALM      29.88R
$$

NVZ020-UTZ003-311800-
SOUTHERN NEVADA-UTAH

CITY           SKY/WX    TMP DP  RH WIND       PRES   REMARKS
LAS VEGAS      NOT AVBL
SALT LAKE CITY PTSUNNY   38  30  73 NW3       30.03R
$$

NMZ009-TXZ055-311800-
NEW MEXICO-WEST TEXAS

CITY           SKY/WX    TMP DP  RH WIND       PRES   REMARKS
ALBUQUERQUE    LGT RAIN  35  34  96 NW3       29.93F FOG
EL PASO        RAIN      45  44  97 NE3       29.93R FOG
$$


........................KEY........................
SKY/WX - SKY CONDITION/WEATHER
TMP    - TEMPERATURE IN FAHRENHEIT
DP     - DEW POINT IN FAHRENHEIT
RH     - RELATIVE HUMIDITY IN PERCENT
WIND   - DIRECTION AND SPEED IN MILES PER HOUR (MPH)
VRB    - VARIABLE WIND DIRECTION
PRES   - MEAN SEA LEVEL PRESSURE IN INCHES OF MERCURY
         F - FALLING PRESSURE   R - RISING PRESSURE
         S - STEADY PRESSURE
VSB    - VISIBILITY IN MILES
HX     - HEAT INDEX IN FAHRENHEIT
WCI    - WIND CHILL INDEX IN FAHRENHEIT
TC     - TEMPERATURE IN CELSIUS WHICH IS ALSO KNOWN AS
         TEMPERATURE IN CENTIGRADE
AFB    - AIR FORCE BASE
         LUKE AFB IS LUKE AIR FORCE BASE
         DAVIS-MONTHAN IS DAVIS-MONTHAN AIR FORCE BASE
NAS    - NAVAL AIR STATION
         EL CENTRO NAS IS EL CENTRO NAVAL AIR STATION
N/A    - NOT AVAILABLE


USA.gov is the U.S. government's official web portal to all federal, state and local government web resources and services.